San Jose, Costa Rica

1:15 AM CST on December 08, 2016 (GMT -0600)
Juan Santamaria International

Weather History for MROC - November, 2011

Change the Weather History Date:

Thursday, November 3, 2011

  Actual Average Record
Temperature  
Mean Temperature 74 °F -  
Max Temperature 84 °F 78 °F 86 °F (1997)
Min Temperature 65 °F 64 °F 62 °F (2003)
Cooling Degree Days 10    
Growing Degree Days 24 (Base 50)    
Moisture  
Dew Point 66 °F    
Average Humidity 76    
Maximum Humidity 94    
Minimum Humidity 51    
Precipitation  
Precipitation 0.00 in 0.16 in - ()
Sea Level Pressure  
Sea Level Pressure 29.93 in    
Wind  
Wind Speed 6 mph ()    
Max Wind Speed 10 mph    
Max Gust Speed -    
Visibility 8.1 miles    
Events Fog    
Averages and records for this station are not official NWS values.
T = Trace of Precipitation, MM = Missing Value Source: Averaged Metar Reports

Daily Weather History Graph

Daily Weather History Graph

Search for Another Location

Airport or City:

Trip Planner

Search our weather history database for the weather conditions in past years. The results will help you decide how hot, cold, wet, or windy it might be!

Date:

Astronomy

Nov. 03, 2011 Rise Set
Actual Time 5:27 AM CST 5:12 PM CST
Civil Twilight 5:06 AM CST 5:34 PM CST
Nautical Twilight 4:40 AM CST 5:59 PM CST
Astronomical Twilight 4:15 AM CST 6:24 PM CST
Moon 12:30 PM CST (11/3) No Moon Set
Length of Visible Light 12h 28m
Length of Day
11h 45m
First Quarter, 61% of the Moon is Illuminated
Nov 3
First Quarter
Nov 10
Full
Nov 18
Last Quarter
Nov 25
New
Dec 2
First Quarter

Hourly Weather History & Observations

Time (CST) Temp. Heat Index Dew Point Humidity Pressure Visibility Wind Dir Wind Speed Gust Speed Precip Events Conditions
12:00 AM 69 °F - 63 °F 74% 29.81 in 12 mi NE 4.6 mph - -   Clear
12:00 AM 69.8 °F - 62.6 °F 78% 29.96 in - NE 4.6 mph - N/A   Clear
1:00 AM 69.8 °F - 62.6 °F 78% 29.94 in - East 4.6 mph - N/A   Clear
2:00 AM 68.0 °F - 62.6 °F 83% 29.93 in - East 6.9 mph - N/A   Clear
3:00 AM 68.0 °F - 62.6 °F 83% 29.93 in - East 6.9 mph - N/A   Clear
4:00 AM 68.0 °F - 62.6 °F 83% 29.94 in - NNE 8.1 mph - N/A   Clear
5:00 AM 68.0 °F - 62.6 °F 83% 29.96 in - ENE 5.8 mph - N/A   Clear
6:00 AM 68 °F - 62 °F 77% 29.86 in 12 mi ENE 5.8 mph - -   Clear
6:00 AM 68.0 °F - 62.6 °F 83% 29.97 in - ENE 5.8 mph - N/A   Clear
7:00 AM 71.6 °F - 62.6 °F 73% 29.98 in - East 5.8 mph - N/A   Clear
8:00 AM 75.2 °F - 64.4 °F 69% 29.99 in - East 6.9 mph - N/A   Clear
9:00 AM 79 °F - 64 °F 51% 29.87 in 12 mi East 8.1 mph - -   Partly Cloudy
9:00 AM 78.8 °F - 64.4 °F 61% 29.99 in - East 8.1 mph - N/A   Clear
10:00 AM 80.6 °F 82.3 °F 64.4 °F 58% 29.99 in 6.2 mi ESE 5.8 mph - N/A   Scattered Clouds
10:30 AM 78.8 °F - 69.8 °F 74% 29.97 in 6.2 mi SW 6.9 mph - N/A   Mostly Cloudy
11:00 AM 77.0 °F - 68.0 °F 74% 29.96 in 6.2 mi SW 6.9 mph - N/A   Mostly Cloudy
12:00 PM 79 °F - 69 °F 64% 29.85 in 12 mi WSW 6.9 mph - -   Partly Cloudy
12:00 PM 78.8 °F - 69.8 °F 74% 29.94 in 6.2 mi WSW 6.9 mph - N/A   Scattered Clouds
1:00 PM 82.4 °F 87.2 °F 71.6 °F 70% 29.91 in 6.2 mi SSW 6.9 mph - N/A   Mostly Cloudy
2:00 PM 78.8 °F - 68.0 °F 69% 29.88 in 6.2 mi West 10.4 mph - N/A   Mostly Cloudy
3:00 PM 77 °F - 70 °F 74% 29.78 in 12 mi SW 6.9 mph - -   Overcast
3:00 PM 77.0 °F - 69.8 °F 78% 29.88 in 6.2 mi SW 6.9 mph - N/A   Mostly Cloudy
4:00 PM 71.6 °F - 69.8 °F 94% 29.90 in 5.0 mi WSW 9.2 mph - N/A Fog Fog
5:00 PM 71.6 °F - 69.8 °F 94% 29.92 in 6.2 mi West 5.8 mph - N/A Fog Mostly Cloudy
6:00 PM 71 °F - 69 °F 90% 29.84 in 9 mi SSW 3.5 mph - -   Mostly Cloudy
6:00 PM 71.6 °F - 68.0 °F 88% 29.95 in 6.2 mi SSW 3.5 mph - N/A   Scattered Clouds
7:00 PM 71.6 °F - 68.0 °F 88% 29.96 in 6.2 mi North 9.2 mph - N/A   Mostly Cloudy
8:00 PM 71.6 °F - 62.6 °F 73% 29.99 in 6.2 mi ESE 10.4 mph - N/A   Mostly Cloudy
9:00 PM 70 °F - 63 °F 72% 29.85 in 12 mi East 5.8 mph - -  
9:00 PM 69.8 °F - 62.6 °F 78% 30.02 in - East 5.8 mph - N/A   Clear
10:00 PM 69.8 °F - 62.6 °F 78% 30.01 in - East 6.9 mph - N/A   Clear